EHI
0 0 0 0 0 0 0 0 0 0 0 0 0 0 0 0 0 0 0 0 0 0 0 0 0 0 0 0 0 0 0 0 0 0 0 0 0 0
0 0 0 0 0 0 0 0 0 0 0 0 0 0 0 0 0 0 0 0 0 0 0 0 0 0 0 0 0 0 0 0 0 0 0 0 0 0
0 0 0 0 0 0 0 0 0 0 0 0 0 0 0 0 0 0 0 0 0 0 0 0 0 0 0 0 0 0 0 0 0 0 0 0 0 0
0 0 0 0 0 0 0 0 0 0 0 0 0 0 0 0 0 0 0 0 0 0 0 0 0 0 0 0 0 0 0 0 0 0 0 0 0 0
0 0 0 0 0 0 0 0 0 0 0 0 0 0 0 0 0 0 0 0 0 0 0 0 0 0 0 0 0 0 0 0 0 0 0 0 0 0
0 0 0 0 0 0 0 0 0 0 0 0 0 0 0 0 0 0 0 0 0 0 0 0 0 0 0 0 0 0 0 0 0 0 0 0 0 0
0 0 0 0 0 0 0 0 0 0 0 0 0 0 0 0 0 0 0 0 0 0 0 0 0 0 0 0 0 0 0 0 0 0 0 0 0 0
0 0 0 0 0 0 0 0 0 0 0 0 0 0 0 0 0 0 0 0 0 0 0 0 0 0 0 0 0 0 0 0 0 0 0 0 0 0
0 0 0 0 0 0 0 0 0 0 0 0 0 0 0 0 0 0 0 0 0 0 0 0 0 0 0 0 0 0 0 0 0 0 0 0 0 0
0 0 0 0 0 0 0 0 0 0 0 0 0 0 0 0 0 0 0 0 0 0 0 0 0 0 0 0 0 0 0 0 0 0 0 0 0 0
0 0 0 0 0 0 0 0 0 0 0 0 0 0 0 0 0 0 0 0 0 0 0 0 0 0 0 0 0 0 0 0 0 0 0 0 0 0
0 0 0 0 0 0 0 0 0 0 0 0 0 0 0 0 0 0 0 0 0 0 0 0 0 0 0 0 0 0 0 0 0 0 0 0 0 0
0 0 0 0 0 0 0 0 0 0 0 0 0 0 0 0 0 0 0 0 0 0 0 0 0 0 0 0 0 0 0 0 0 0 0 0 0 0
0 0 0 0 0 0 0 0 0 0 0 0 0 0 0 0 0 0 0 0 0 0 0 0 0 0 0 0 0 0 0 0 0 0 0 0 0 0
0 0 0 0 0 0 0 0 0 0 0 0 0 0 0 0 0 0 0 0 0 0 0 0 0 0 0 0 0 0 0 0 0 0 0 0 0 0
0 0 0 0 0 0 0 0 0 0 0 0 0 0 0 0 0 0 0 0 0 0 0 0 0 0 0 0 0 0 0 0 0 0 0 0 0 0
0 0 0 0 0 0 0 0 0 0 0 0 0 0 0 0 0 0 0 0 0 0 0 0 0 0 0 0 0 0 0 0 0 0 0 0 0 0
0 0 0 0 0 0 0 0 0 0 0 0 0 0 0 0 0 0 0 0 0 0 0 0 0 0 0 0 0 0 0 0 0 0 0 0 0 0
0 0 0 0 0 0 0 0 0 0 0 0 0 0 0 0 0 0 0 0 0 0 0 0 0 0 0 0 0 0 0 0 0 0 0 0 0 0
0 0 0 0 0 0 0 0 0 0 0 0 0 0 0 0 0 0 0 0 0 0 0 0 0 0 0 0 0 0 0 0 0 0 0 0 0 0
0 0 0 0 0 0 0 0 0 0 0 0 0 0 0 0 0 0 0 0 0 0 0 0 0 0 0 0 0 0 0 0 0 0 0 0 0 0
0 0 0 0 0 0 0 0 0 0 0 0 0 0 0 0 0 0 0 0 0 0 0 0 0 0 0 0 0 0 0 0 0 0 0 0 0 0
0 0 0 0 0 0 0 0 0 0 0 0 0 0 0 0 0 0 0 0 0 0 0 0 0 0 0 0 0 0 0 0 0 0 0 0 0 0
Wind_Speed
2 2 1 1 1 1 1 1 1 2 4 3 3 3 5 5 9 7 7 13 16 16 16 16 16 17 17 17 18 18 19 19 20 21 21 22 22 23
2 2 1 1 0 0 0 0 1 2 3 3 3 5 6 6 10 7 8 15 15 16 16 16 16 17 17 17 18 18 19 20 20 21 21 21 22 22
2 2 1 1 1 0 0 0 0 1 3 4 3 4 5 7 8 7 7 7 8 15 16 16 16 17 17 17 17 18 19 19 20 21 21 21 22 22
2 2 1 1 0 0 0 0 1 1 2 5 4 4 5 6 7 8 8 7 7 13 15 16 16 17 17 17 17 17 18 19 20 20 21 21 22 22
2 2 1 1 0 1 1 1 1 2 2 3 5 4 4 5 7 7 7 6 7 10 13 14 16 17 17 17 17 17 18 19 19 20 21 21 21 21
2 2 1 2 2 1 1 1 1 2 2 3 4 4 4 5 5 7 8 7 7 7 9 11 14 16 17 17 17 17 18 19 19 20 20 20 20 20
1 1 1 1 1 1 1 1 1 2 2 3 4 4 5 6 6 6 8 8 7 4 6 7 8 7 8 13 15 17 18 18 19 20 20 20 20 20
1 0 0 0 1 2 3 3 2 2 3 3 3 5 6 6 6 6 7 8 7 4 7 8 6 7 7 6 13 18 18 18 19 20 21 20 19 20
2 1 0 1 1 1 2 3 4 5 4 3 4 5 6 6 6 6 6 7 7 7 6 7 5 7 7 9 16 16 17 18 19 20 21 20 20 20
1 1 1 1 2 1 1 2 2 3 4 3 3 5 5 5 5 5 6 6 6 4 3 5 5 6 8 7 12 14 17 18 19 20 21 20 19 19
1 1 0 1 2 3 2 2 3 4 5 7 7 7 8 8 7 4 5 5 7 5 2 3 5 7 6 5 7 14 16 18 19 20 20 20 19 17
1 0 1 1 2 3 1 1 3 4 4 5 6 6 5 6 8 4 3 4 5 5 3 4 5 6 7 4 4 6 8 13 18 19 19 20 20 11
1 0 1 2 3 4 3 1 3 3 3 3 3 4 4 4 4 4 3 3 4 5 4 4 5 4 4 7 6 5 6 7 8 10 14 18 19 14
1 0 1 3 4 4 3 4 5 4 2 2 3 3 4 5 5 5 5 4 4 6 6 5 4 5 6 7 7 6 6 6 6 7 8 13 14 16
1 1 3 4 4 3 5 6 4 2 2 2 3 4 4 4 5 5 5 5 5 4 5 4 4 5 5 5 6 6 7 6 6 7 8 8 8 8
2 3 4 5 4 4 4 4 3 2 2 2 3 3 4 4 4 4 4 5 5 5 4 4 4 5 5 6 6 7 6 6 7 8 8 7 7 6
2 2 2 2 3 3 3 3 3 3 3 3 3 4 4 4 4 4 4 4 4 6 7 6 5 5 5 5 5 5 6 6 6 7 8 8 7 7
3 2 2 2 2 2 2 3 3 3 3 3 3 3 4 4 5 5 4 4 5 5 6 6 7 7 4 2 2 4 5 5 6 7 6 7 8 7
2 1 1 1 1 2 2 2 3 3 3 3 3 3 4 4 4 5 5 5 5 5 5 5 5 6 6 6 5 3 4 6 6 6 5 5 6 8
1 1 0 1 1 2 2 2 3 3 3 3 3 3 4 4 4 5 5 5 6 6 6 5 4 5 5 5 5 5 7 6 5 6 6 5 5 8
1 0 0 1 1 2 2 2 2 3 3 3 3 4 4 4 4 4 5 7 6 5 6 6 6 9 5 3 3 5 5 6 6 5 6 5 6 6
0 0 1 1 1 2 2 2 2 3 3 3 3 3 3 4 4 5 5 5 5 5 5 5 6 5 3 3 5 5 6 7 8 9 7 5 4 5
1 1 1 2 2 2 2 2 3 3 3 3 3 3 4 4 4 4 4 4 5 5 5 5 5 4 3 3 4 4 6 7 6 6 6 10 10 9
Wind_Direction
141 133 121 123 128 142 160 171 181 290 291 294 305 312 326 323 325 326 318 321 330 332 333 333 333 333 332 332 331 331 328 327 326 325 324 324 322 321
137 128 111 118 117 96 147 192 201 227 275 287 288 304 317 322 326 324 315 326 328 330 332 332 333 333 333 333 333 331 329 328 327 326 325 324 322 321
132 135 131 120 114 66 67 324 283 239 269 291 290 304 307 318 325 321 318 316 319 328 329 332 333 333 333 334 332 331 329 328 327 327 326 325 323 321
149 140 141 108 101 50 263 268 268 258 259 293 304 310 310 317 319 320 324 323 317 323 328 331 332 332 332 332 333 332 331 330 329 328 327 326 326 325
162 162 171 158 209 273 270 277 284 297 274 283 303 309 312 321 325 321 320 316 319 322 327 331 331 332 332 333 334 333 332 331 330 329 328 327 327 327
164 169 182 192 218 240 261 272 291 306 309 306 308 317 317 320 325 328 328 327 322 321 326 327 327 330 331 331 332 332 333 332 332 332 331 330 330 328
140 159 204 214 277 292 314 284 300 314 318 318 317 321 322 330 330 324 321 322 315 313 322 320 321 320 322 326 329 331 334 336 336 336 335 334 332 330
145 121 201 228 310 320 315 316 324 318 311 310 308 312 311 314 315 320 322 328 322 326 328 316 316 314 316 318 326 331 336 339 339 339 337 336 335 334
159 153 338 312 340 291 308 335 325 321 310 295 291 296 297 303 311 315 317 314 303 308 320 307 311 311 314 319 326 331 338 341 341 340 339 338 337 337
161 176 193 276 294 323 348 338 323 316 311 302 277 284 294 301 301 303 301 303 294 295 306 299 310 311 313 312 324 334 340 341 342 342 342 341 339 338
155 158 191 245 300 356 15 340 332 328 338 338 332 328 331 333 336 335 331 330 322 316 320 304 309 315 307 302 319 333 337 339 340 342 343 343 341 337
115 179 289 323 334 355 5 330 324 325 336 344 345 342 340 340 346 344 326 325 322 314 326 327 315 327 316 303 313 325 330 333 338 340 343 346 346 342
127 316 305 344 352 354 359 331 321 336 339 339 337 338 343 342 336 331 321 307 306 298 309 322 311 315 301 307 311 318 329 331 334 335 339 344 346 347
156 278 332 359 7 10 7 358 1 4 359 351 348 344 341 334 328 324 320 312 290 285 293 300 295 305 311 310 309 318 325 330 335 336 338 341 343 343
95 46 30 34 25 19 17 18 18 10 3 356 343 333 327 319 321 326 326 322 312 303 302 296 295 302 300 298 304 313 320 326 337 340 340 342 339 338
64 61 52 46 37 26 20 16 8 2 360 346 334 326 325 329 333 332 329 334 333 329 320 311 304 305 303 294 296 308 319 321 330 335 335 336 338 343
80 61 43 30 26 18 10 7 4 4 4 350 342 339 336 337 333 333 332 334 336 331 332 332 324 303 283 287 299 311 321 325 327 332 336 337 339 343
83 80 53 32 20 6 357 353 353 355 352 345 342 340 335 333 333 333 335 336 333 330 328 328 334 335 331 317 292 309 324 327 329 335 338 338 339 342
83 89 63 14 354 347 341 339 336 338 338 339 339 337 333 330 330 333 335 335 333 329 327 329 336 340 342 340 330 338 326 326 332 336 337 335 330 330
79 98 56 335 329 328 328 330 331 334 338 339 337 334 332 331 331 333 335 335 331 328 329 333 337 336 326 315 313 320 328 325 328 329 330 329 320 315
54 53 323 308 314 316 317 322 323 323 327 332 332 331 332 331 330 330 331 332 334 331 331 330 321 323 309 306 319 329 333 339 337 326 323 328 336 347
14 332 315 310 310 311 317 322 321 320 325 327 324 326 327 324 323 326 330 329 328 327 323 320 324 334 347 348 339 332 333 338 348 354 355 354 347 349
288 290 297 302 307 310 312 313 311 311 312 312 315 321 322 320 319 320 322 324 326 330 331 332 339 346 343 334 335 336 340 344 350 360 3 1 0 355